Time,TemperatureF,DewpointF,PressureIn,WindDirection,WindDirectionDegrees,WindSpeedMPH,WindSpeedGustMPH,Humidity,HourlyPrecipIn,Conditions,Clouds,dailyrainin,SoftwareType,DateUTC
2013-01-25 00:00:00,21.4,6.9,30.18,East,86,3.8,6.3,49,0.00,,,0.00,WSDL version 423,2013-01-25 06:00:00,
2013-01-25 00:05:00,21.4,6.7,30.18,ESE,113,2.4,6.0,49,0.00,,,0.00,WSDL version 423,2013-01-25 06:05:00,
2013-01-25 00:10:00,21.4,6.9,30.18,ENE,61,2.7,7.2,49,0.00,,,0.00,WSDL version 423,2013-01-25 06:10:00,
2013-01-25 00:15:00,21.4,6.5,30.18,North,4,3.1,7.2,48,0.00,,,0.00,WSDL version 423,2013-01-25 06:15:00,
2013-01-25 00:20:00,21.4,6.5,30.15,NE,53,4.0,6.5,48,0.00,,,0.00,WSDL version 423,2013-01-25 06:20:00,
2013-01-25 00:25:00,21.4,6.5,30.15,NNW,344,3.5,7.2,48,0.00,,,0.00,WSDL version 423,2013-01-25 06:25:00,
2013-01-25 00:30:00,21.4,6.5,30.15,North,3,3.8,7.2,48,0.00,,,0.00,WSDL version 423,2013-01-25 06:30:00,
2013-01-25 00:35:00,21.4,6.5,30.15,NE,42,3.4,6.3,48,0.00,,,0.00,WSDL version 423,2013-01-25 06:35:00,
2013-01-25 00:40:00,21.4,6.5,30.15,West,270,2.9,8.1,48,0.00,,,0.00,WSDL version 423,2013-01-25 06:40:00,
2013-01-25 00:45:00,21.4,6.5,30.15,NE,45,3.8,8.1,48,0.00,,,0.00,WSDL version 423,2013-01-25 06:45:00,
2013-01-25 00:50:00,21.4,6.5,30.15,ENE,76,2.9,6.3,48,0.00,,,0.00,WSDL version 423,2013-01-25 06:50:00,
2013-01-25 00:56:00,21.5,6.6,30.15,NE,51,2.7,5.8,48,0.00,,,0.00,WSDL version 423,2013-01-25 06:56:00,
2013-01-25 01:01:00,21.6,6.7,30.15,NE,34,2.8,5.8,48,0.00,,,0.00,WSDL version 423,2013-01-25 07:01:00,
2013-01-25 01:06:00,21.6,6.7,30.15,NE,55,3.2,6.0,48,0.00,,,0.00,WSDL version 423,2013-01-25 07:06:00,
2013-01-25 01:11:00,21.6,6.7,30.15,NE,50,2.7,6.0,48,0.00,,,0.00,WSDL version 423,2013-01-25 07:11:00,
2013-01-25 01:16:00,21.6,6.7,30.15,SE,129,1.3,5.6,48,0.00,,,0.00,WSDL version 423,2013-01-25 07:16:00,
2013-01-25 01:21:00,21.6,6.7,30.15,East,86,2.2,3.6,48,0.00,,,0.00,WSDL version 423,2013-01-25 07:21:00,
2013-01-25 01:27:00,21.6,6.7,30.15,SSE,155,2.3,3.8,48,0.00,,,0.00,WSDL version 423,2013-01-25 07:27:00,
2013-01-25 01:32:00,21.6,6.7,30.12,ENE,68,2.6,3.8,48,0.00,,,0.00,WSDL version 423,2013-01-25 07:32:00,
2013-01-25 01:37:00,21.7,6.8,30.12,East,83,2.7,5.6,48,0.00,,,0.00,WSDL version 423,2013-01-25 07:37:00,
2013-01-25 01:43:00,21.7,6.8,30.12,NE,55,3.4,6.3,48,0.00,,,0.00,WSDL version 423,2013-01-25 07:43:00,
2013-01-25 01:48:00,21.7,6.8,30.12,ESE,105,2.3,6.3,48,0.00,,,0.00,WSDL version 423,2013-01-25 07:48:00,
2013-01-25 01:53:00,21.7,6.8,30.12,SE,129,3.0,4.9,48,0.00,,,0.00,WSDL version 423,2013-01-25 07:53:00,
2013-01-25 01:58:00,21.7,6.8,30.12,North,357,2.1,4.9,48,0.00,,,0.00,WSDL version 423,2013-01-25 07:58:00,
2013-01-25 02:03:00,21.7,6.8,30.12,NE,36,3.0,4.3,48,0.00,,,0.00,WSDL version 423,2013-01-25 08:03:00,
2013-01-25 02:08:00,21.7,6.8,30.12,North,357,2.2,4.3,48,0.00,,,0.00,WSDL version 423,2013-01-25 08:08:00,
2013-01-25 02:14:00,21.8,6.9,30.12,North,11,1.3,5.6,48,0.00,,,0.00,WSDL version 423,2013-01-25 08:14:00,
2013-01-25 02:19:00,21.9,7.0,30.12,ENE,59,1.3,5.4,48,0.00,,,0.00,WSDL version 423,2013-01-25 08:19:00,
2013-01-25 02:25:00,21.9,7.0,30.12,NE,56,2.2,4.3,48,0.00,,,0.00,WSDL version 423,2013-01-25 08:25:00,
2013-01-25 02:30:00,21.9,7.0,30.12,ENE,71,2.1,4.3,48,0.00,,,0.00,WSDL version 423,2013-01-25 08:30:00,
2013-01-25 02:35:00,21.9,7.0,30.12,NE,53,1.8,4.3,48,0.00,,,0.00,WSDL version 423,2013-01-25 08:35:00,
2013-01-25 02:40:00,21.9,7.0,30.12,ENE,77,2.4,4.3,48,0.00,,,0.00,WSDL version 423,2013-01-25 08:40:00,
2013-01-25 02:45:00,21.9,7.0,30.12,SSE,158,2.7,4.3,48,0.00,,,0.00,WSDL version 423,2013-01-25 08:45:00,
2013-01-25 02:50:00,21.9,7.0,30.12,East,79,2.3,4.3,48,0.00,,,0.00,WSDL version 423,2013-01-25 08:50:00,
2013-01-25 02:55:00,21.9,7.0,30.12,NE,48,2.2,4.3,48,0.00,,,0.00,WSDL version 423,2013-01-25 08:55:00,
2013-01-25 03:00:00,21.9,7.0,30.12,SSE,160,1.0,3.8,48,0.00,,,0.00,WSDL version 423,2013-01-25 09:00:00,
2013-01-25 03:05:00,21.9,7.0,30.09,East,95,2.2,3.1,48,0.00,,,0.00,WSDL version 423,2013-01-25 09:05:00,
2013-01-25 03:10:00,21.9,7.0,30.09,East,86,2.1,3.6,48,0.00,,,0.00,WSDL version 423,2013-01-25 09:10:00,
2013-01-25 03:15:00,21.9,7.0,30.09,West,264,1.2,3.6,48,0.00,,,0.00,WSDL version 423,2013-01-25 09:15:00,
2013-01-25 03:20:00,21.9,7.0,30.09,NE,54,2.1,5.4,48,0.00,,,0.00,WSDL version 423,2013-01-25 09:20:00,
2013-01-25 03:25:00,21.9,7.0,30.09,ESE,120,2.1,5.4,48,0.00,,,0.00,WSDL version 423,2013-01-25 09:25:00,
2013-01-25 03:30:00,21.8,7.2,30.09,SSW,200,3.5,4.9,49,0.00,,,0.00,WSDL version 423,2013-01-25 09:30:00,
2013-01-25 03:35:00,21.7,7.3,30.09,SSW,193,3.2,5.4,50,0.00,,,0.00,WSDL version 423,2013-01-25 09:35:00,
2013-01-25 03:40:00,21.6,7.5,30.09,NW,309,2.3,7.6,50,0.00,,,0.00,WSDL version 423,2013-01-25 09:40:00,
2013-01-25 03:45:00,21.5,7.8,30.09,SSE,160,4.1,7.6,51,0.00,,,0.00,WSDL version 423,2013-01-25 09:45:00,
2013-01-25 03:50:00,21.4,8.2,30.09,SW,222,3.5,6.7,53,0.00,,,0.00,WSDL version 423,2013-01-25 09:50:00,
2013-01-25 03:55:00,21.3,8.5,30.09,South,176,4.2,6.7,54,0.00,,,0.00,WSDL version 423,2013-01-25 09:55:00,
2013-01-25 04:00:00,21.2,9.0,30.09,SSE,167,3.0,10.5,55,0.00,,,0.00,WSDL version 423,2013-01-25 10:00:00,
2013-01-25 04:05:00,21.2,9.0,30.09,WSW,253,1.1,10.5,55,0.00,,,0.00,WSDL version 423,2013-01-25 10:05:00,
2013-01-25 04:10:00,21.2,9.3,30.09,South,188,3.2,5.4,56,0.00,,,0.00,WSDL version 423,2013-01-25 10:10:00,
2013-01-25 04:15:00,21.1,9.5,30.09,South,175,4.0,7.6,58,0.00,,,0.00,WSDL version 423,2013-01-25 10:15:00,
2013-01-25 04:20:00,21.0,9.9,30.09,SSE,167,4.1,7.6,58,0.00,,,0.00,WSDL version 423,2013-01-25 10:20:00,
2013-01-25 04:25:00,21.0,10.2,30.09,SSW,198,4.6,8.1,59,0.00,,,0.00,WSDL version 423,2013-01-25 10:25:00,
2013-01-25 04:30:00,21.0,10.2,30.09,WSW,248,4.0,8.1,59,0.00,,,0.00,WSDL version 423,2013-01-25 10:30:00,
2013-01-25 04:35:00,21.0,10.4,30.06,East,87,3.2,7.4,59,0.00,,,0.00,WSDL version 423,2013-01-25 10:35:00,
2013-01-25 04:40:00,21.0,10.4,30.06,South,180,4.0,6.3,60,0.00,,,0.00,WSDL version 423,2013-01-25 10:40:00,
2013-01-25 04:45:00,20.8,10.4,30.06,SE,145,1.0,6.3,60,0.00,,,0.00,WSDL version 423,2013-01-25 10:45:00,
2013-01-25 04:50:00,20.8,10.5,30.03,SSW,206,1.7,8.5,60,0.00,,,0.00,WSDL version 423,2013-01-25 10:50:00,
2013-01-25 04:55:00,20.8,10.7,30.03,SSE,167,4.7,10.7,61,0.00,,,0.00,WSDL version 423,2013-01-25 10:55:00,
2013-01-25 05:00:00,20.8,10.9,30.03,SSW,196,1.5,10.7,62,0.00,,,0.00,WSDL version 423,2013-01-25 11:00:00,
2013-01-25 05:05:00,20.8,10.9,30.03,South,173,3.9,8.1,62,0.00,,,0.00,WSDL version 423,2013-01-25 11:05:00,
2013-01-25 05:10:00,20.8,11.1,30.03,South,172,1.5,6.3,63,0.00,,,0.00,WSDL version 423,2013-01-25 11:10:00,
2013-01-25 05:15:00,20.8,11.2,30.03,SSE,163,2.7,5.6,63,0.00,,,0.00,WSDL version 423,2013-01-25 11:15:00,
2013-01-25 05:20:00,20.7,11.4,30.03,SSE,160,3.4,6.3,64,0.00,,,0.00,WSDL version 423,2013-01-25 11:20:00,
2013-01-25 05:25:00,20.7,11.5,30.03,SSE,160,4.2,7.8,64,0.00,,,0.00,WSDL version 423,2013-01-25 11:25:00,
2013-01-25 05:30:00,20.7,11.8,30.03,South,174,1.9,7.8,65,0.00,,,0.00,WSDL version 423,2013-01-25 11:30:00,
2013-01-25 05:35:00,20.7,12.0,30.03,South,183,1.5,6.3,65,0.00,,,0.00,WSDL version 423,2013-01-25 11:35:00,
2013-01-25 05:40:00,20.7,12.0,30.03,South,180,3.4,6.3,66,0.00,,,0.00,WSDL version 423,2013-01-25 11:40:00,
2013-01-25 05:45:00,20.7,12.1,30.03,SSE,158,1.7,5.8,66,0.00,,,0.00,WSDL version 423,2013-01-25 11:45:00,
2013-01-25 05:50:00,20.7,12.1,30.06,South,173,1.1,4.0,65,0.00,,,0.00,WSDL version 423,2013-01-25 11:50:00,
2013-01-25 05:55:00,20.7,12.1,30.06,South,183,0.0,3.8,66,0.00,,,0.00,WSDL version 423,2013-01-25 11:55:00,
2013-01-25 06:00:00,20.7,11.9,30.06,South,177,0.0,3.6,66,0.00,,,0.00,WSDL version 423,2013-01-25 12:00:00,
2013-01-25 06:05:00,20.7,12.0,30.06,South,183,0.2,2.9,66,0.00,,,0.00,WSDL version 423,2013-01-25 12:05:00,
2013-01-25 06:10:00,20.7,11.8,30.06,South,188,0.0,2.9,65,0.00,,,0.00,WSDL version 423,2013-01-25 12:10:00,
2013-01-25 06:15:00,20.8,12.0,30.06,SSE,167,0.4,3.4,65,0.00,,,0.00,WSDL version 423,2013-01-25 12:15:00,
2013-01-25 06:20:00,20.8,12.3,30.06,South,188,0.0,3.4,66,0.00,,,0.00,WSDL version 423,2013-01-25 12:20:00,
2013-01-25 06:25:00,20.8,12.3,30.06,SSW,197,0.0,0.0,66,0.00,,,0.00,WSDL version 423,2013-01-25 12:25:00,
2013-01-25 06:30:00,20.8,12.3,30.06,South,186,1.0,6.7,66,0.00,,,0.00,WSDL version 423,2013-01-25 12:30:00,
2013-01-25 06:35:00,20.8,12.6,30.06,SSW,197,0.0,6.7,67,0.00,,,0.00,WSDL version 423,2013-01-25 12:35:00,
2013-01-25 06:40:00,20.8,12.5,30.06,SSE,167,0.4,4.0,67,0.00,,,0.00,WSDL version 423,2013-01-25 12:40:00,
2013-01-25 06:45:00,20.8,12.6,30.06,South,169,0.4,4.0,67,0.00,,,0.00,WSDL version 423,2013-01-25 12:45:00,
2013-01-25 06:50:00,20.8,12.7,30.03,South,183,1.2,4.7,68,0.00,,,0.00,WSDL version 423,2013-01-25 12:50:00,
2013-01-25 06:55:00,20.8,12.9,30.03,SSE,168,3.7,7.6,68,0.00,,,0.00,WSDL version 423,2013-01-25 12:55:00,
2013-01-25 07:00:00,20.8,12.7,30.03,South,174,0.6,7.6,67,0.00,,,0.00,WSDL version 423,2013-01-25 13:00:00,
2013-01-25 07:05:00,20.8,12.6,30.06,SSE,161,0.0,3.6,67,0.00,,,0.00,WSDL version 423,2013-01-25 13:05:00,
2013-01-25 07:10:00,21.0,12.8,30.06,South,191,1.8,4.5,67,0.00,,,0.00,WSDL version 423,2013-01-25 13:10:00,
2013-01-25 07:15:00,21.0,12.8,30.06,South,174,0.0,4.5,67,0.00,,,0.00,WSDL version 423,2013-01-25 13:15:00,
2013-01-25 07:20:00,21.0,12.8,30.03,South,184,0.1,1.6,67,0.00,,,0.00,WSDL version 423,2013-01-25 13:20:00,
2013-01-25 07:25:00,21.0,12.8,30.03,South,177,0.3,2.9,67,0.00,,,0.00,WSDL version 423,2013-01-25 13:25:00,
2013-01-25 07:30:00,21.2,12.9,30.03,South,185,0.0,4.0,67,0.00,,,0.00,WSDL version 423,2013-01-25 13:30:00,
2013-01-25 07:35:00,21.2,13.0,30.03,South,170,0.8,4.3,67,0.00,,,0.00,WSDL version 423,2013-01-25 13:35:00,
2013-01-25 07:40:00,21.2,13.0,30.03,South,176,0.9,4.3,67,0.00,,,0.00,WSDL version 423,2013-01-25 13:40:00,
2013-01-25 07:45:00,21.2,13.0,30.03,South,190,0.0,4.5,67,0.00,,,0.00,WSDL version 423,2013-01-25 13:45:00,
2013-01-25 07:50:00,21.3,12.9,30.03,South,183,0.0,4.5,66,0.00,,,0.00,WSDL version 423,2013-01-25 13:50:00,
2013-01-25 07:55:00,21.5,12.9,30.03,South,173,0.6,4.0,66,0.00,,,0.00,WSDL version 423,2013-01-25 13:55:00,
2013-01-25 08:00:00,21.6,13.1,30.03,South,186,2.0,6.0,66,0.00,,,0.00,WSDL version 423,2013-01-25 14:00:00,
2013-01-25 08:05:00,21.7,13.1,30.03,South,183,0.6,6.0,66,0.00,,,0.00,WSDL version 423,2013-01-25 14:05:00,
2013-01-25 08:10:00,21.8,13.3,30.03,South,183,0.4,3.6,66,0.00,,,0.00,WSDL version 423,2013-01-25 14:10:00,
2013-01-25 08:15:00,21.9,13.4,30.03,South,183,0.9,6.0,66,0.00,,,0.00,WSDL version 423,2013-01-25 14:15:00,
2013-01-25 08:20:00,22.0,13.2,30.03,South,176,0.4,7.2,65,0.00,,,0.00,WSDL version 423,2013-01-25 14:20:00,
2013-01-25 08:25:00,22.3,13.4,30.03,South,180,1.6,7.2,65,0.00,,,0.00,WSDL version 423,2013-01-25 14:25:00,
2013-01-25 08:30:00,22.4,13.5,30.03,SSW,195,0.8,4.3,65,0.00,,,0.00,WSDL version 423,2013-01-25 14:30:00,
2013-01-25 08:35:00,22.6,13.7,30.00,South,186,1.6,7.2,65,0.00,,,0.00,WSDL version 423,2013-01-25 14:35:00,
2013-01-25 08:40:00,22.8,13.6,30.00,SSW,194,0.0,7.2,64,0.00,,,0.00,WSDL version 423,2013-01-25 14:40:00,
2013-01-25 08:45:00,23.0,13.8,30.00,South,180,2.6,6.3,64,0.00,,,0.00,WSDL version 423,2013-01-25 14:45:00,
2013-01-25 08:51:00,23.3,14.0,30.00,SSW,205,1.5,6.3,64,0.00,,,0.00,WSDL version 423,2013-01-25 14:51:00,
2013-01-25 08:57:00,23.5,14.0,30.00,SSW,197,1.9,6.0,63,0.00,,,0.00,WSDL version 423,2013-01-25 14:57:00,
2013-01-25 09:02:00,23.6,14.1,30.03,SSW,194,2.3,7.6,63,0.00,,,0.00,WSDL version 423,2013-01-25 15:02:00,
2013-01-25 09:07:00,23.7,13.9,30.03,South,190,1.6,7.6,62,0.00,,,0.00,WSDL version 423,2013-01-25 15:07:00,
2013-01-25 09:12:00,23.8,13.9,30.03,SSW,210,1.6,5.8,62,0.00,,,0.00,WSDL version 423,2013-01-25 15:12:00,
2013-01-25 09:17:00,24.1,14.1,30.00,SW,231,1.5,6.0,62,0.00,,,0.00,WSDL version 423,2013-01-25 15:17:00,
2013-01-25 09:22:00,24.4,14.4,30.00,SSW,200,1.6,6.0,62,0.00,,,0.00,WSDL version 423,2013-01-25 15:22:00,
2013-01-25 09:27:00,24.6,14.5,30.00,SSW,209,3.7,6.9,61,0.00,,,0.00,WSDL version 423,2013-01-25 15:27:00,
2013-01-25 09:33:00,24.9,14.5,30.00,SSW,203,1.8,6.9,60,0.00,,,0.00,WSDL version 423,2013-01-25 15:33:00,
2013-01-25 09:38:00,25.2,14.5,30.00,SSW,203,2.9,6.7,60,0.00,,,0.00,WSDL version 423,2013-01-25 15:38:00,
2013-01-25 09:43:00,25.4,14.8,30.00,SSW,203,0.0,6.7,60,0.00,,,0.00,WSDL version 423,2013-01-25 15:43:00,
2013-01-25 09:48:00,25.7,14.8,30.03,SSW,206,2.5,10.3,59,0.00,,,0.00,WSDL version 423,2013-01-25 15:48:00,
2013-01-25 09:53:00,26.1,15.1,30.03,SW,218,1.2,10.3,59,0.00,,,0.00,WSDL version 423,2013-01-25 15:53:00,
2013-01-25 09:58:00,26.3,15.0,30.03,SSW,207,2.3,7.6,58,0.00,,,0.00,WSDL version 423,2013-01-25 15:58:00,
2013-01-25 10:03:00,26.7,15.1,30.00,SSW,212,3.1,7.6,57,0.00,,,0.00,WSDL version 423,2013-01-25 16:03:00,
2013-01-25 10:08:00,26.9,15.0,30.00,SW,218,2.9,5.6,56,0.00,,,0.00,WSDL version 423,2013-01-25 16:08:00,
2013-01-25 10:13:00,27.2,15.0,30.00,NNW,334,3.0,6.0,56,0.00,,,0.00,WSDL version 423,2013-01-25 16:13:00,
2013-01-25 10:18:00,27.5,15.1,30.00,SSW,209,3.9,8.1,55,0.00,,,0.00,WSDL version 423,2013-01-25 16:18:00,
2013-01-25 10:23:00,27.8,15.0,30.00,South,176,1.8,8.1,54,0.00,,,0.00,WSDL version 423,2013-01-25 16:23:00,
2013-01-25 10:29:00,28.0,14.8,30.00,NW,323,2.2,8.1,53,0.00,,,0.00,WSDL version 423,2013-01-25 16:29:00,
2013-01-25 10:34:00,28.2,14.9,30.00,SW,233,3.7,8.5,52,0.00,,,0.00,WSDL version 423,2013-01-25 16:34:00,
2013-01-25 10:40:00,28.5,14.8,30.00,West,259,2.5,8.5,52,0.00,,,0.00,WSDL version 423,2013-01-25 16:40:00,
2013-01-25 10:46:00,28.6,14.6,30.00,SW,225,3.1,10.3,51,0.00,,,0.00,WSDL version 423,2013-01-25 16:46:00,
2013-01-25 10:51:00,28.7,14.8,30.00,South,186,2.7,10.3,52,0.00,,,0.00,WSDL version 423,2013-01-25 16:51:00,
2013-01-25 10:56:00,29.0,15.3,30.00,North,352,3.2,9.6,52,0.00,,,0.00,WSDL version 423,2013-01-25 16:56:00,
2013-01-25 11:01:00,29.4,15.6,30.00,West,273,1.5,9.6,52,0.00,,,0.00,WSDL version 423,2013-01-25 17:01:00,
2013-01-25 11:06:00,29.5,15.6,30.00,West,259,3.1,7.6,52,0.00,,,0.00,WSDL version 423,2013-01-25 17:06:00,
2013-01-25 11:11:00,29.7,15.7,30.00,West,259,3.6,8.5,51,0.00,,,0.00,WSDL version 423,2013-01-25 17:11:00,
2013-01-25 11:16:00,29.9,16.2,30.00,WSW,238,2.9,8.5,52,0.00,,,0.00,WSDL version 423,2013-01-25 17:16:00,
2013-01-25 11:21:00,30.3,16.2,29.97,SW,225,5.1,10.3,51,0.00,,,0.00,WSDL version 423,2013-01-25 17:21:00,
2013-01-25 11:26:00,30.3,16.1,29.97,WNW,300,3.5,10.3,51,0.00,,,0.00,WSDL version 423,2013-01-25 17:26:00,
2013-01-25 11:31:00,30.2,16.0,29.97,West,278,2.9,6.9,51,0.00,,,0.00,WSDL version 423,2013-01-25 17:31:00,
2013-01-25 11:36:00,29.9,15.8,29.97,WNW,293,3.8,6.9,51,0.00,,,0.00,WSDL version 423,2013-01-25 17:36:00,
2013-01-25 11:41:00,30.1,15.9,29.97,NW,305,2.9,10.3,51,0.00,,,0.00,WSDL version 423,2013-01-25 17:41:00,
2013-01-25 11:46:00,30.1,15.9,29.97,SSW,203,4.5,10.3,51,0.00,,,0.00,WSDL version 423,2013-01-25 17:46:00,
2013-01-25 11:51:00,30.4,15.9,29.97,SW,235,5.2,10.5,50,0.00,,,0.00,WSDL version 423,2013-01-25 17:51:00,
2013-01-25 11:56:00,30.3,15.7,29.97,SSW,200,5.2,10.5,50,0.00,,,0.00,WSDL version 423,2013-01-25 17:56:00,
2013-01-25 12:01:00,30.2,15.8,29.97,SW,228,5.1,10.3,50,0.00,,,0.00,WSDL version 423,2013-01-25 18:01:00,
2013-01-25 12:06:00,30.7,16.3,29.97,SW,222,5.6,10.5,50,0.00,,,0.00,WSDL version 423,2013-01-25 18:06:00,
2013-01-25 12:11:00,30.7,16.1,29.97,ESE,107,5.6,10.5,50,0.00,,,0.00,WSDL version 423,2013-01-25 18:11:00,
2013-01-25 12:16:00,30.8,16.2,29.97,SW,229,5.9,11.2,50,0.00,,,0.00,WSDL version 423,2013-01-25 18:16:00,
2013-01-25 12:21:00,30.9,16.3,29.97,WSW,241,5.2,11.2,50,0.00,,,0.00,WSDL version 423,2013-01-25 18:21:00,
2013-01-25 12:26:00,31.0,16.4,29.97,South,188,5.7,10.3,50,0.00,,,0.00,WSDL version 423,2013-01-25 18:26:00,
2013-01-25 12:32:00,31.1,16.5,29.94,NW,321,4.5,10.5,50,0.00,,,0.00,WSDL version 423,2013-01-25 18:32:00,
2013-01-25 12:37:00,31.1,16.4,29.94,South,180,7.5,12.3,50,0.00,,,0.00,WSDL version 423,2013-01-25 18:37:00,
2013-01-25 12:42:00,31.1,16.3,29.94,SW,221,6.3,12.3,50,0.00,,,0.00,WSDL version 423,2013-01-25 18:42:00,
2013-01-25 12:47:00,31.1,16.2,29.94,South,186,6.1,9.8,49,0.00,,,0.00,WSDL version 423,2013-01-25 18:47:00,
2013-01-25 12:52:00,31.1,16.0,29.94,SW,229,5.0,8.7,49,0.00,,,0.00,WSDL version 423,2013-01-25 18:52:00,
2013-01-25 12:57:00,31.3,16.4,29.94,SW,225,6.1,9.8,50,0.00,,,0.00,WSDL version 423,2013-01-25 18:57:00,
2013-01-25 13:02:00,31.5,16.5,29.94,SSW,206,6.0,9.8,49,0.00,,,0.00,WSDL version 423,2013-01-25 19:02:00,
2013-01-25 13:07:00,31.5,16.4,29.94,WSW,254,4.3,9.2,49,0.00,,,0.00,WSDL version 423,2013-01-25 19:07:00,
2013-01-25 13:12:00,31.8,16.8,29.94,SSW,193,6.7,10.3,49,0.00,,,0.00,WSDL version 423,2013-01-25 19:12:00,
2013-01-25 13:17:00,32.0,16.9,29.94,NW,315,3.9,10.5,49,0.00,,,0.00,WSDL version 423,2013-01-25 19:17:00,
2013-01-25 13:22:00,32.2,15.5,29.94,WNW,284,5.2,10.5,49,0.00,,,0.00,WSDL version 423,2013-01-25 19:22:00,
2013-01-25 13:27:00,32.2,15.1,29.94,SW,225,7.3,10.5,49,0.00,,,0.00,WSDL version 423,2013-01-25 19:27:00,
2013-01-25 13:32:00,32.5,15.4,29.94,SSW,203,8.2,11.4,49,0.00,,,0.00,WSDL version 423,2013-01-25 19:32:00,
2013-01-25 13:37:00,32.5,15.1,29.94,SSW,207,6.5,11.4,49,0.00,,,0.00,WSDL version 423,2013-01-25 19:37:00,
2013-01-25 13:42:00,32.5,15.0,29.94,East,100,5.1,11.0,48,0.00,,,0.00,WSDL version 423,2013-01-25 19:42:00,
2013-01-25 13:47:00,32.6,15.1,29.94,SW,214,5.2,10.7,48,0.00,,,0.00,WSDL version 423,2013-01-25 19:47:00,
2013-01-25 13:52:00,33.0,15.5,29.94,WNW,293,5.3,10.5,48,0.00,,,0.00,WSDL version 423,2013-01-25 19:52:00,
2013-01-25 13:57:00,33.1,15.5,29.94,South,173,5.3,11.9,48,0.00,,,0.00,WSDL version 423,2013-01-25 19:57:00,
2013-01-25 14:02:00,33.1,15.5,29.94,SE,125,5.6,11.9,48,0.00,,,0.00,WSDL version 423,2013-01-25 20:02:00,
2013-01-25 14:07:00,33.2,15.7,29.94,SW,214,5.5,9.8,48,0.00,,,0.00,WSDL version 423,2013-01-25 20:07:00,
2013-01-25 14:12:00,33.4,15.9,29.94,SW,235,6.4,9.8,48,0.00,,,0.00,WSDL version 423,2013-01-25 20:12:00,
2013-01-25 14:17:00,33.5,15.9,29.94,SSW,199,6.4,9.8,48,0.00,,,0.00,WSDL version 423,2013-01-25 20:17:00,
2013-01-25 14:22:00,33.6,15.7,29.94,SSW,206,6.9,11.0,47,0.00,,,0.00,WSDL version 423,2013-01-25 20:22:00,
2013-01-25 14:27:00,33.7,15.6,29.94,South,190,4.9,12.5,47,0.00,,,0.00,WSDL version 423,2013-01-25 20:27:00,
2013-01-25 14:32:00,33.9,15.8,29.91,SSW,197,7.7,12.5,47,0.00,,,0.00,WSDL version 423,2013-01-25 20:32:00,
2013-01-25 14:37:00,33.9,15.8,29.91,South,171,7.3,11.0,47,0.00,,,0.00,WSDL version 423,2013-01-25 20:37:00,
2013-01-25 14:42:00,34.0,15.5,29.91,SW,228,4.3,9.8,47,0.00,,,0.00,WSDL version 423,2013-01-25 20:42:00,
2013-01-25 14:47:00,34.0,15.8,29.94,WSW,242,6.2,11.0,46,0.00,,,0.00,WSDL version 423,2013-01-25 20:47:00,
2013-01-25 14:52:00,34.3,15.7,29.94,SSW,203,7.0,13.2,46,0.00,,,0.00,WSDL version 423,2013-01-25 20:52:00,
2013-01-25 14:57:00,34.3,15.7,29.94,South,190,7.4,13.2,46,0.00,,,0.00,WSDL version 423,2013-01-25 20:57:00,
2013-01-25 15:02:00,34.3,15.7,29.91,SW,229,5.9,11.0,46,0.00,,,0.00,WSDL version 423,2013-01-25 21:02:00,
2013-01-25 15:07:00,34.3,15.7,29.91,SW,225,6.2,10.7,46,0.00,,,0.00,WSDL version 423,2013-01-25 21:07:00,
2013-01-25 15:12:00,34.5,15.9,29.91,South,174,7.4,11.0,46,0.00,,,0.00,WSDL version 423,2013-01-25 21:12:00,
2013-01-25 15:17:00,34.6,15.9,29.91,WNW,301,6.1,11.0,46,0.00,,,0.00,WSDL version 423,2013-01-25 21:17:00,
2013-01-25 15:22:00,34.7,16.0,29.91,West,259,5.9,10.5,46,0.00,,,0.00,WSDL version 423,2013-01-25 21:22:00,
2013-01-25 15:27:00,34.7,16.0,29.91,SSW,205,5.7,10.5,46,0.00,,,0.00,WSDL version 423,2013-01-25 21:27:00,
2013-01-25 15:32:00,34.8,16.1,29.91,SW,228,6.8,10.5,46,0.00,,,0.00,WSDL version 423,2013-01-25 21:32:00,
2013-01-25 15:37:00,34.9,16.2,29.91,SSW,212,5.3,10.5,46,0.00,,,0.00,WSDL version 423,2013-01-25 21:37:00,
2013-01-25 15:42:00,34.9,16.2,29.91,SSW,205,6.6,13.4,46,0.00,,,0.00,WSDL version 423,2013-01-25 21:42:00,
2013-01-25 15:47:00,34.9,16.2,29.91,SSE,154,6.5,13.4,46,0.00,,,0.00,WSDL version 423,2013-01-25 21:47:00,
2013-01-25 15:52:00,34.9,16.2,29.91,SW,215,5.7,10.7,46,0.00,,,0.00,WSDL version 423,2013-01-25 21:52:00,
2013-01-25 15:57:00,34.9,16.2,29.91,West,270,5.5,10.7,46,0.00,,,0.00,WSDL version 423,2013-01-25 21:57:00,
2013-01-25 16:02:00,34.9,16.2,29.94,West,265,5.3,13.6,46,0.00,,,0.00,WSDL version 423,2013-01-25 22:02:00,
2013-01-25 16:07:00,34.9,16.2,29.94,South,190,5.0,13.6,46,0.00,,,0.00,WSDL version 423,2013-01-25 22:07:00,
2013-01-25 16:12:00,34.9,16.2,29.94,SSW,206,5.4,8.5,46,0.00,,,0.00,WSDL version 423,2013-01-25 22:12:00,
2013-01-25 16:17:00,34.9,16.2,29.94,West,263,6.1,8.1,46,0.00,,,0.00,WSDL version 423,2013-01-25 22:17:00,
2013-01-25 16:22:00,34.7,16.0,29.94,SSW,209,4.9,10.1,46,0.00,,,0.00,WSDL version 423,2013-01-25 22:22:00,
2013-01-25 16:27:00,34.6,16.0,29.94,SE,124,4.4,10.1,46,0.00,,,0.00,WSDL version 423,2013-01-25 22:27:00,
2013-01-25 16:32:00,34.5,15.9,29.94,WSW,248,4.5,8.1,46,0.00,,,0.00,WSDL version 423,2013-01-25 22:32:00,
2013-01-25 16:37:00,34.5,15.9,29.94,WSW,255,5.3,10.3,46,0.00,,,0.00,WSDL version 423,2013-01-25 22:37:00,
2013-01-25 16:42:00,34.4,15.7,29.94,SW,214,3.8,10.3,46,0.00,,,0.00,WSDL version 423,2013-01-25 22:42:00,
2013-01-25 16:47:00,34.3,15.7,29.94,SW,228,4.4,8.5,46,0.00,,,0.00,WSDL version 423,2013-01-25 22:47:00,
2013-01-25 16:52:00,34.3,15.7,29.94,NW,318,4.4,7.4,46,0.00,,,0.00,WSDL version 423,2013-01-25 22:52:00,
2013-01-25 16:57:00,34.2,16.1,29.94,NE,34,3.7,7.4,47,0.00,,,0.00,WSDL version 423,2013-01-25 22:57:00,
2013-01-25 17:02:00,34.0,15.9,29.94,WSW,248,5.2,7.8,47,0.00,,,0.00,WSDL version 423,2013-01-25 23:02:00,
2013-01-25 17:07:00,34.0,15.9,29.94,West,278,4.0,9.6,47,0.00,,,0.00,WSDL version 423,2013-01-25 23:07:00,
2013-01-25 17:12:00,33.9,15.8,29.94,NW,325,4.0,9.6,47,0.00,,,0.00,WSDL version 423,2013-01-25 23:12:00,
2013-01-25 17:17:00,33.7,15.7,29.94,SW,231,3.3,6.0,48,0.00,,,0.00,WSDL version 423,2013-01-25 23:17:00,
2013-01-25 17:22:00,33.6,16.0,29.94,WNW,301,3.6,7.2,48,0.00,,,0.00,WSDL version 423,2013-01-25 23:22:00,
2013-01-25 17:27:00,33.4,15.9,29.94,NW,325,3.7,7.2,48,0.00,,,0.00,WSDL version 423,2013-01-25 23:27:00,
2013-01-25 17:32:00,33.3,15.7,29.94,WSW,243,3.9,6.5,48,0.00,,,0.00,WSDL version 423,2013-01-25 23:32:00,
2013-01-25 17:37:00,33.1,15.9,29.94,NW,304,3.7,6.3,49,0.00,,,0.00,WSDL version 423,2013-01-25 23:37:00,
2013-01-25 17:42:00,32.9,15.9,29.94,WNW,302,3.9,6.3,49,0.00,,,0.00,WSDL version 423,2013-01-25 23:42:00,
2013-01-25 17:47:00,32.8,16.0,29.94,NW,305,4.4,7.6,50,0.00,,,0.00,WSDL version 423,2013-01-25 23:47:00,
2013-01-25 17:52:00,33.0,16.4,29.94,West,281,4.1,7.6,50,0.00,,,0.00,WSDL version 423,2013-01-25 23:52:00,
2013-01-25 17:57:00,33.1,16.5,29.94,WNW,283,3.5,8.1,50,0.00,,,0.00,WSDL version 423,2013-01-25 23:57:00,
2013-01-25 18:02:00,33.1,16.5,29.97,WNW,293,5.8,8.5,50,0.00,,,0.00,WSDL version 423,2013-01-26 00:02:00,
2013-01-25 18:07:00,33.1,16.5,29.97,NW,325,5.3,9.4,50,0.00,,,0.00,WSDL version 423,2013-01-26 00:07:00,
2013-01-25 18:12:00,33.0,16.4,29.97,NNW,335,4.3,9.4,50,0.00,,,0.00,WSDL version 423,2013-01-26 00:12:00,
2013-01-25 18:17:00,32.8,16.2,29.97,NW,321,5.4,8.7,50,0.00,,,0.00,WSDL version 423,2013-01-26 00:17:00,
2013-01-25 18:22:00,32.7,16.3,29.97,West,278,5.3,8.7,51,0.00,,,0.00,WSDL version 423,2013-01-26 00:22:00,
2013-01-25 18:27:00,32.5,16.4,29.97,WNW,300,3.5,8.7,51,0.00,,,0.00,WSDL version 423,2013-01-26 00:27:00,
2013-01-25 18:32:00,32.3,16.2,29.97,NW,315,3.6,7.4,51,0.00,,,0.00,WSDL version 423,2013-01-26 00:32:00,
2013-01-25 18:37:00,32.2,16.5,29.97,WNW,302,5.4,10.7,52,0.00,,,0.00,WSDL version 423,2013-01-26 00:37:00,
2013-01-25 18:42:00,32.1,17.6,29.97,NW,323,3.6,10.7,53,0.00,,,0.00,WSDL version 423,2013-01-26 00:42:00,
2013-01-25 18:47:00,31.9,18.6,30.00,West,270,5.4,8.1,55,0.00,,,0.00,WSDL version 423,2013-01-26 00:47:00,
2013-01-25 18:52:00,31.8,19.1,30.00,NW,311,3.7,8.1,55,0.00,,,0.00,WSDL version 423,2013-01-26 00:52:00,
2013-01-25 18:57:00,31.6,19.0,30.00,NW,315,5.0,8.5,56,0.00,,,0.00,WSDL version 423,2013-01-26 00:57:00,
2013-01-25 19:02:00,31.4,19.1,30.00,NNW,331,3.5,8.5,56,0.00,,,0.00,WSDL version 423,2013-01-26 01:02:00,
2013-01-25 19:07:00,31.1,18.9,30.00,NW,304,3.4,8.9,57,0.00,,,0.00,WSDL version 423,2013-01-26 01:07:00,
2013-01-25 19:12:00,30.8,18.8,30.00,WNW,293,2.6,8.9,57,0.00,,,0.00,WSDL version 423,2013-01-26 01:12:00,
2013-01-25 19:17:00,30.4,18.4,30.00,NNW,332,3.2,4.9,58,0.00,,,0.00,WSDL version 423,2013-01-26 01:17:00,
2013-01-25 19:22:00,30.1,18.6,30.00,NW,315,2.8,4.7,58,0.00,,,0.00,WSDL version 423,2013-01-26 01:22:00,
2013-01-25 19:27:00,29.8,18.2,30.00,NW,306,2.8,4.5,58,0.00,,,0.00,WSDL version 423,2013-01-26 01:27:00,
2013-01-25 19:32:00,29.6,18.2,30.00,NW,323,3.1,5.4,59,0.00,,,0.00,WSDL version 423,2013-01-26 01:32:00,
2013-01-25 19:37:00,29.4,18.0,30.00,West,267,2.9,5.8,58,0.00,,,0.00,WSDL version 423,2013-01-26 01:37:00,
2013-01-25 19:42:00,29.1,17.8,30.00,West,266,2.5,5.8,58,0.00,,,0.00,WSDL version 423,2013-01-26 01:42:00,
2013-01-25 19:47:00,28.8,17.6,30.00,WNW,290,2.5,4.0,59,0.00,,,0.00,WSDL version 423,2013-01-26 01:47:00,
2013-01-25 19:52:00,28.6,17.6,30.00,West,273,3.2,5.6,60,0.00,,,0.00,WSDL version 423,2013-01-26 01:52:00,
2013-01-25 19:57:00,28.6,17.7,30.00,West,281,2.9,5.6,60,0.00,,,0.00,WSDL version 423,2013-01-26 01:57:00,
2013-01-25 20:02:00,28.6,18.0,30.00,NW,308,2.8,4.9,61,0.00,,,0.00,WSDL version 423,2013-01-26 02:02:00,
2013-01-25 20:07:00,28.3,17.8,30.00,NW,318,1.7,4.3,60,0.00,,,0.00,WSDL version 423,2013-01-26 02:07:00,
2013-01-25 20:12:00,28.1,17.6,30.00,WNW,293,3.0,5.4,61,0.00,,,0.00,WSDL version 423,2013-01-26 02:12:00,
2013-01-25 20:17:00,27.9,17.2,30.00,WNW,284,2.4,5.4,60,0.00,,,0.00,WSDL version 423,2013-01-26 02:17:00,
2013-01-25 20:22:00,27.8,17.3,30.00,West,270,2.0,4.0,61,0.00,,,0.00,WSDL version 423,2013-01-26 02:22:00,
2013-01-25 20:27:00,27.7,17.3,30.00,NW,304,2.3,5.6,61,0.00,,,0.00,WSDL version 423,2013-01-26 02:27:00,
2013-01-25 20:32:00,27.5,17.5,30.00,NW,309,2.4,5.6,62,0.00,,,0.00,WSDL version 423,2013-01-26 02:32:00,
2013-01-25 20:37:00,27.5,17.6,30.00,NW,308,2.8,4.9,63,0.00,,,0.00,WSDL version 423,2013-01-26 02:37:00,
2013-01-25 20:42:00,27.5,17.8,30.00,NW,323,3.7,6.0,64,0.00,,,0.00,WSDL version 423,2013-01-26 02:42:00,
2013-01-25 20:47:00,27.5,18.1,30.00,NNW,333,3.8,6.5,64,0.00,,,0.00,WSDL version 423,2013-01-26 02:47:00,
2013-01-25 20:52:00,27.5,18.1,30.00,NNE,23,3.7,6.5,64,0.00,,,0.00,WSDL version 423,2013-01-26 02:52:00,
2013-01-25 20:57:00,27.2,17.7,30.00,NNW,338,4.3,6.5,63,0.00,,,0.00,WSDL version 423,2013-01-26 02:57:00,
2013-01-25 21:02:00,26.9,17.3,30.03,NNW,338,3.5,6.5,63,0.00,,,0.00,WSDL version 423,2013-01-26 03:02:00,
2013-01-25 21:07:00,26.8,17.1,30.03,North,349,4.5,7.8,63,0.00,,,0.00,WSDL version 423,2013-01-26 03:07:00,
2013-01-25 21:12:00,26.6,16.9,30.03,NNW,338,4.5,7.8,63,0.00,,,0.00,WSDL version 423,2013-01-26 03:12:00,
2013-01-25 21:17:00,26.3,16.5,30.03,NNW,347,4.2,7.6,62,0.00,,,0.00,WSDL version 423,2013-01-26 03:17:00,
2013-01-25 21:22:00,26.1,16.1,30.03,NNW,344,4.0,7.8,62,0.00,,,0.00,WSDL version 423,2013-01-26 03:22:00,
2013-01-25 21:27:00,25.9,15.9,30.03,North,3,4.7,7.8,62,0.00,,,0.00,WSDL version 423,2013-01-26 03:27:00,
2013-01-25 21:32:00,25.4,15.6,30.03,North,3,4.3,6.3,63,0.00,,,0.00,WSDL version 423,2013-01-26 03:32:00,
2013-01-25 21:37:00,25.1,15.4,30.03,North,349,6.9,9.6,62,0.00,,,0.00,WSDL version 423,2013-01-26 03:37:00,
2013-01-25 21:42:00,24.7,14.4,30.03,North,5,5.0,9.6,60,0.00,,,0.00,WSDL version 423,2013-01-26 03:42:00,
2013-01-25 21:47:00,24.4,13.3,30.06,North,350,6.3,10.3,58,0.00,,,0.00,WSDL version 423,2013-01-26 03:47:00,
2013-01-25 21:52:00,24.0,12.4,30.06,NNW,335,4.7,10.7,57,0.00,,,0.00,WSDL version 423,2013-01-26 03:52:00,
2013-01-25 21:57:00,23.8,12.2,30.06,NW,315,3.6,10.7,57,0.00,,,0.00,WSDL version 423,2013-01-26 03:57:00,
2013-01-25 22:02:00,23.5,10.9,30.06,NW,321,3.9,7.6,53,0.00,,,0.00,WSDL version 423,2013-01-26 04:02:00,
2013-01-25 22:07:00,23.3,9.8,30.06,NNW,338,5.2,7.6,52,0.00,,,0.00,WSDL version 423,2013-01-26 04:07:00,
2013-01-25 22:12:00,22.9,9.4,30.06,North,354,4.3,7.4,51,0.00,,,0.00,WSDL version 423,2013-01-26 04:12:00,
2013-01-25 22:17:00,22.7,8.9,30.06,NNW,344,4.1,7.6,51,0.00,,,0.00,WSDL version 423,2013-01-26 04:17:00,
2013-01-25 22:22:00,22.4,8.6,30.06,NNW,332,3.3,8.1,51,0.00,,,0.00,WSDL version 423,2013-01-26 04:22:00,
2013-01-25 22:27:00,22.2,8.4,30.06,NNW,335,4.3,8.5,51,0.00,,,0.00,WSDL version 423,2013-01-26 04:27:00,
2013-01-25 22:32:00,21.9,8.2,30.09,NNW,329,4.2,8.5,51,0.00,,,0.00,WSDL version 423,2013-01-26 04:32:00,
2013-01-25 22:37:00,21.7,7.9,30.09,NNW,335,4.0,7.8,51,0.00,,,0.00,WSDL version 423,2013-01-26 04:37:00,
2013-01-25 22:42:00,21.4,7.8,30.09,NNW,331,3.2,6.3,52,0.00,,,0.00,WSDL version 423,2013-01-26 04:42:00,
2013-01-25 22:47:00,21.1,7.9,30.09,North,352,4.8,8.1,53,0.00,,,0.00,WSDL version 423,2013-01-26 04:47:00,
2013-01-25 22:52:00,20.9,8.0,30.09,North,354,2.8,8.1,53,0.00,,,0.00,WSDL version 423,2013-01-26 04:52:00,
2013-01-25 22:57:00,20.7,7.8,30.09,NNW,345,2.3,7.4,54,0.00,,,0.00,WSDL version 423,2013-01-26 04:57:00,
2013-01-25 23:00:00,20.5,7.9,30.09,NNW,330,0.7,7.4,54,0.00,,,0.00,WSDL version 423,2013-01-26 05:00:00,
2013-01-25 23:01:00,20.4,7.9,30.09,NNW,342,0.2,7.4,54,0.00,,,0.00,WSDL version 423,2013-01-26 05:01:00,
2013-01-25 23:04:00,20.3,7.8,30.09,North,352,2.3,7.6,54,0.00,,,0.00,WSDL version 423,2013-01-26 05:04:00,
2013-01-25 23:09:00,20.2,7.7,30.09,North,352,4.6,8.1,54,0.00,,,0.00,WSDL version 423,2013-01-26 05:09:00,
2013-01-25 23:12:00,20.0,7.5,30.09,North,350,2.8,8.1,54,0.00,,,0.00,WSDL version 423,2013-01-26 05:12:00,
2013-01-25 23:17:00,19.9,7.4,30.09,North,357,4.8,8.5,54,0.00,,,0.00,WSDL version 423,2013-01-26 05:17:00,
2013-01-25 23:22:00,19.8,7.3,30.09,NNW,344,4.5,8.5,54,0.00,,,0.00,WSDL version 423,2013-01-26 05:22:00,
2013-01-25 23:27:00,19.6,7.2,30.09,NNW,338,0.8,7.8,55,0.00,,,0.00,WSDL version 423,2013-01-26 05:27:00,
2013-01-25 23:32:00,19.3,7.3,30.09,NW,321,1.3,7.2,55,0.00,,,0.00,WSDL version 423,2013-01-26 05:32:00,
2013-01-25 23:37:00,19.1,7.4,30.09,NNW,343,1.0,7.2,56,0.00,,,0.00,WSDL version 423,2013-01-26 05:37:00,
2013-01-25 23:42:00,18.9,7.1,30.09,NNW,331,1.3,4.0,56,0.00,,,0.00,WSDL version 423,2013-01-26 05:42:00,
2013-01-25 23:47:00,18.7,7.0,30.12,North,355,0.5,4.0,56,0.00,,,0.00,WSDL version 423,2013-01-26 05:47:00,
2013-01-25 23:52:00,18.5,6.8,30.12,North,349,1.1,4.0,56,0.00,,,0.00,WSDL version 423,2013-01-26 05:52:00,
2013-01-25 23:57:00,18.4,6.7,30.12,North,354,3.5,7.4,56,0.00,,,0.00,WSDL version 423,2013-01-26 05:57:00,